Back to catalog

THORAD AGENA D DEB

AliveSSO
NORAD 4773·DEBRIS·🇺🇸 United States

Launched Apr 8, 1970 from Vandenberg Space Force Base

Loading…

Next Passes

TLE

Source: Space-Track
1  4773U 70025DT  26221.70546306  .00000031  00000-0  10832-3 0  9990
2  4773 100.0236 274.3924 0032328 120.9055   0.7625 13.57124254775357

Track THORAD AGENA D DEB in real time with AllMySat

Download on the App Store